User: anonymous   Login
Location: Azul
(36.7830°S, 59.8500°W)
Time: 09:43:50
(UTC-03:00)
Language:

NOAA 19 - Orbit

View from above orbital plane
View from above orbital plane
View from above satellite
View from above satellite

Ground track
Ground track

The orbit data is extracted from the following two-line orbital elements,

1 33591U 09005A   21295.06409919  .00000075  00000-0  65951-4 0  9994
2 33591  99.1764 318.8673 0014622 134.8692 225.3669 14.12502376654798
Epoch (UTC): 22 October 2021 01:32:18
Eccentricity: 0.0014622
inclination: 99.1764°
perigee height: 840 km
apogee height: 861 km
right ascension of ascending node: 318.8673°
argument of perigee: 134.8692°
revolutions per day: 14.12502376
mean anomaly at epoch: 225.3669°
orbit number at epoch: 65479

The dashed part of the orbit path shows where the satellite is in the earth's shadow,  

DLR